Time,TemperatureF,DewpointF,PressureIn,WindDirection,WindDirectionDegrees,WindSpeedMPH,WindSpeedGustMPH,Humidity,HourlyPrecipIn,Conditions,Clouds,dailyrainin,SoftwareType,DateUTC
2013-09-09 00:01:00,57.1,44.2,30.10,ENE,67,0.0,2.0,62,0.00,,,-99.99,WeatherLink 5.7,2013-09-09 04:01:00,
2013-09-09 00:11:00,57.0,44.5,30.12,SE,135,1.0,2.0,63,0.00,,,-99.99,WeatherLink 5.7,2013-09-09 04:11:00,
2013-09-09 00:21:00,57.0,44.1,30.12,SE,135,0.0,2.0,62,0.00,,,-99.99,WeatherLink 5.7,2013-09-09 04:21:00,
2013-09-09 00:31:00,56.9,44.4,30.12,SE,135,0.0,2.0,63,0.00,,,-99.99,WeatherLink 5.7,2013-09-09 04:31:00,
2013-09-09 00:41:00,56.7,44.2,30.13,SE,135,0.0,1.0,63,0.00,,,-99.99,WeatherLink 5.7,2013-09-09 04:41:00,
2013-09-09 00:51:00,56.4,44.0,30.12,SE,135,0.0,1.0,63,0.00,,,-99.99,WeatherLink 5.7,2013-09-09 04:51:00,
2013-09-09 01:01:00,56.1,44.1,30.13,SSE,157,0.0,2.0,64,0.00,,,-99.99,WeatherLink 5.7,2013-09-09 05:01:00,
2013-09-09 01:11:00,55.9,43.9,30.13,SSE,157,0.0,1.0,64,0.00,,,-99.99,WeatherLink 5.7,2013-09-09 05:11:00,
2013-09-09 01:21:00,55.8,43.8,30.13,SSE,157,0.0,2.0,64,0.00,,,-99.99,WeatherLink 5.7,2013-09-09 05:21:00,
2013-09-09 01:31:00,55.7,43.7,30.13,SSE,157,0.0,2.0,64,0.00,,,-99.99,WeatherLink 5.7,2013-09-09 05:31:00,
2013-09-09 01:41:00,55.6,43.6,30.13,SSE,157,0.0,2.0,64,0.00,,,-99.99,WeatherLink 5.7,2013-09-09 05:41:00,
2013-09-09 01:51:00,55.3,43.7,30.13,SSE,157,0.0,1.0,65,0.00,,,-99.99,WeatherLink 5.7,2013-09-09 05:51:00,
2013-09-09 02:01:00,55.1,43.5,30.13,SSE,157,0.0,2.0,65,0.00,,,-99.99,WeatherLink 5.7,2013-09-09 06:01:00,
2013-09-09 02:11:00,55.0,43.8,30.13,SSE,157,0.0,1.0,66,0.00,,,-99.99,WeatherLink 5.7,2013-09-09 06:11:00,
2013-09-09 02:21:00,54.8,43.7,30.14,SSE,157,0.0,1.0,66,0.00,,,-99.99,WeatherLink 5.7,2013-09-09 06:21:00,
2013-09-09 02:31:00,54.6,43.5,30.14,SSE,157,0.0,2.0,66,0.00,,,-99.99,WeatherLink 5.7,2013-09-09 06:31:00,
2013-09-09 02:41:00,54.4,44.1,30.14,SSE,157,0.0,1.0,68,0.00,,,-99.99,WeatherLink 5.7,2013-09-09 06:41:00,
2013-09-09 02:51:00,54.3,44.0,30.13,SSE,157,0.0,1.0,68,0.00,,,-99.99,WeatherLink 5.7,2013-09-09 06:51:00,
2013-09-09 03:01:00,54.1,43.8,30.14,North,-999,0.0,0.0,68,0.00,,,-99.99,WeatherLink 5.7,2013-09-09 07:01:00,
2013-09-09 03:11:00,53.8,43.5,30.15,SSE,157,0.0,1.0,68,0.00,,,-99.99,WeatherLink 5.7,2013-09-09 07:11:00,
2013-09-09 03:21:00,53.7,43.4,30.14,SSE,157,0.0,1.0,68,0.00,,,-99.99,WeatherLink 5.7,2013-09-09 07:21:00,
2013-09-09 03:31:00,53.7,43.4,30.15,North,-999,0.0,1.0,68,0.00,,,-99.99,WeatherLink 5.7,2013-09-09 07:31:00,
2013-09-09 03:41:00,53.6,44.0,30.15,SSE,157,0.0,1.0,70,0.00,,,-99.99,WeatherLink 5.7,2013-09-09 07:41:00,
2013-09-09 03:51:00,53.2,45.1,30.16,SSE,157,0.0,1.0,74,0.00,,,-99.99,WeatherLink 5.7,2013-09-09 07:51:00,
2013-09-09 04:01:00,52.3,45.0,30.16,North,-999,0.0,1.0,76,0.00,,,-99.99,WeatherLink 5.7,2013-09-09 08:01:00,
2013-09-09 04:11:00,52.1,44.8,30.16,North,-999,0.0,0.0,76,0.00,,,-99.99,WeatherLink 5.7,2013-09-09 08:11:00,
2013-09-09 04:21:00,52.0,45.0,30.17,North,-999,0.0,0.0,77,0.00,,,-99.99,WeatherLink 5.7,2013-09-09 08:21:00,
2013-09-09 04:31:00,51.4,43.7,30.17,SSE,157,0.0,1.0,75,0.00,,,-99.99,WeatherLink 5.7,2013-09-09 08:31:00,
2013-09-09 04:41:00,51.5,43.8,30.18,North,-999,0.0,0.0,75,0.00,,,-99.99,WeatherLink 5.7,2013-09-09 08:41:00,
2013-09-09 04:51:00,51.5,44.5,30.17,North,-999,0.0,0.0,77,0.00,,,-99.99,WeatherLink 5.7,2013-09-09 08:51:00,
2013-09-09 05:01:00,51.1,44.1,30.18,North,-999,0.0,0.0,77,0.00,,,-99.99,WeatherLink 5.7,2013-09-09 09:01:00,
2013-09-09 05:11:00,50.4,44.5,30.19,North,-999,0.0,0.0,80,0.00,,,-99.99,WeatherLink 5.7,2013-09-09 09:11:00,
2013-09-09 05:21:00,49.9,44.0,30.19,North,-999,0.0,0.0,80,0.00,,,-99.99,WeatherLink 5.7,2013-09-09 09:21:00,
2013-09-09 05:31:00,49.6,43.4,30.19,North,-999,0.0,0.0,79,0.00,,,-99.99,WeatherLink 5.7,2013-09-09 09:31:00,
2013-09-09 05:41:00,49.5,43.3,30.20,North,-999,0.0,0.0,79,0.00,,,-99.99,WeatherLink 5.7,2013-09-09 09:41:00,
2013-09-09 05:51:00,49.4,43.2,30.21,North,-999,0.0,0.0,79,0.00,,,-99.99,WeatherLink 5.7,2013-09-09 09:51:00,
2013-09-09 06:01:00,49.3,43.4,30.21,North,-999,0.0,0.0,80,0.00,,,-99.99,WeatherLink 5.7,2013-09-09 10:01:00,
2013-09-09 06:11:00,49.2,43.0,30.22,North,-999,0.0,0.0,79,0.00,,,-99.99,WeatherLink 5.7,2013-09-09 10:11:00,
2013-09-09 06:21:00,49.2,43.3,30.21,North,-999,0.0,0.0,80,0.00,,,-99.99,WeatherLink 5.7,2013-09-09 10:21:00,
2013-09-09 06:31:00,49.1,43.2,30.22,North,-999,0.0,0.0,80,0.00,,,-99.99,WeatherLink 5.7,2013-09-09 10:31:00,
2013-09-09 06:41:00,49.0,43.4,30.22,North,-999,0.0,0.0,81,0.00,,,-99.99,WeatherLink 5.7,2013-09-09 10:41:00,
2013-09-09 06:51:00,48.8,43.5,30.22,North,-999,0.0,0.0,82,0.00,,,-99.99,WeatherLink 5.7,2013-09-09 10:51:00,
2013-09-09 07:01:00,48.7,43.5,30.23,SSE,157,0.0,1.0,82,0.00,,,-99.99,WeatherLink 5.7,2013-09-09 11:01:00,
2013-09-09 07:11:00,48.6,43.4,30.23,North,-999,0.0,0.0,82,0.00,,,-99.99,WeatherLink 5.7,2013-09-09 11:11:00,
2013-09-09 07:21:00,48.6,43.4,30.23,SSE,157,0.0,1.0,82,0.00,,,-99.99,WeatherLink 5.7,2013-09-09 11:21:00,
2013-09-09 07:31:00,48.5,43.6,30.23,SSE,157,0.0,1.0,83,0.00,,,-99.99,WeatherLink 5.7,2013-09-09 11:31:00,
2013-09-09 07:41:00,48.5,43.6,30.23,North,-999,0.0,0.0,83,0.00,,,-99.99,WeatherLink 5.7,2013-09-09 11:41:00,
2013-09-09 07:51:00,48.8,43.9,30.23,North,-999,0.0,0.0,83,0.00,,,-99.99,WeatherLink 5.7,2013-09-09 11:51:00,
2013-09-09 08:01:00,49.3,44.4,30.24,North,-999,0.0,0.0,83,0.00,,,-99.99,WeatherLink 5.7,2013-09-09 12:01:00,
2013-09-09 08:11:00,49.8,44.8,30.24,North,-999,0.0,0.0,83,0.00,,,-99.99,WeatherLink 5.7,2013-09-09 12:11:00,
2013-09-09 08:21:00,50.5,45.2,30.24,North,-999,0.0,0.0,82,0.00,,,-99.99,WeatherLink 5.7,2013-09-09 12:21:00,
2013-09-09 08:31:00,51.2,45.9,30.23,North,-999,0.0,0.0,82,0.00,,,-99.99,WeatherLink 5.7,2013-09-09 12:31:00,
2013-09-09 08:41:00,51.9,46.6,30.24,North,-999,0.0,0.0,82,0.00,,,-99.99,WeatherLink 5.7,2013-09-09 12:41:00,
2013-09-09 08:51:00,52.5,46.8,30.24,North,-999,0.0,0.0,81,0.00,,,-99.99,WeatherLink 5.7,2013-09-09 12:51:00,
2013-09-09 09:01:00,52.9,47.2,30.24,North,-999,0.0,0.0,81,0.00,,,-99.99,WeatherLink 5.7,2013-09-09 13:01:00,
2013-09-09 09:11:00,53.3,47.6,30.25,North,-999,0.0,0.0,81,0.00,,,-99.99,WeatherLink 5.7,2013-09-09 13:11:00,
2013-09-09 09:21:00,54.0,48.0,30.25,North,-999,0.0,0.0,80,0.00,,,-99.99,WeatherLink 5.7,2013-09-09 13:21:00,
2013-09-09 09:31:00,54.7,47.3,30.25,SSE,157,0.0,1.0,76,0.00,,,-99.99,WeatherLink 5.7,2013-09-09 13:31:00,
2013-09-09 09:41:00,55.6,47.4,30.25,SSE,157,0.0,1.0,74,0.00,,,-99.99,WeatherLink 5.7,2013-09-09 13:41:00,
2013-09-09 09:51:00,56.3,49.2,30.25,SSE,157,0.0,1.0,77,0.00,,,-99.99,WeatherLink 5.7,2013-09-09 13:51:00,
2013-09-09 10:01:00,57.3,46.8,30.25,SSE,157,0.0,2.0,68,0.00,,,-99.99,WeatherLink 5.7,2013-09-09 14:01:00,
2013-09-09 10:11:00,58.7,47.4,30.25,SSE,157,0.0,2.0,66,0.00,,,-99.99,WeatherLink 5.7,2013-09-09 14:11:00,
2013-09-09 10:21:00,59.3,47.9,30.25,SSE,157,0.0,2.0,66,0.00,,,-99.99,WeatherLink 5.7,2013-09-09 14:21:00,
2013-09-09 10:31:00,59.9,48.5,30.25,SSE,157,1.0,2.0,66,0.00,,,-99.99,WeatherLink 5.7,2013-09-09 14:31:00,
2013-09-09 10:41:00,60.3,48.9,30.25,SSE,157,1.0,2.0,66,0.00,,,-99.99,WeatherLink 5.7,2013-09-09 14:41:00,
2013-09-09 10:51:00,60.7,48.9,30.25,SSE,157,0.0,2.0,65,0.00,,,-99.99,WeatherLink 5.7,2013-09-09 14:51:00,
2013-09-09 11:01:00,61.0,50.0,30.25,SSE,157,0.0,2.0,67,0.00,,,-99.99,WeatherLink 5.7,2013-09-09 15:01:00,
2013-09-09 11:11:00,61.3,50.2,30.25,SE,135,0.0,1.0,67,0.00,,,-99.99,WeatherLink 5.7,2013-09-09 15:11:00,
2013-09-09 11:21:00,61.7,50.6,30.25,SE,135,1.0,3.0,67,0.00,,,-99.99,WeatherLink 5.7,2013-09-09 15:21:00,
2013-09-09 11:31:00,62.2,50.3,30.24,SE,135,1.0,3.0,65,0.00,,,-99.99,WeatherLink 5.7,2013-09-09 15:31:00,
2013-09-09 11:41:00,62.4,50.9,30.24,SE,135,1.0,2.0,66,0.00,,,-99.99,WeatherLink 5.7,2013-09-09 15:41:00,
2013-09-09 11:51:00,62.7,50.8,30.24,SE,135,0.0,3.0,65,0.00,,,-99.99,WeatherLink 5.7,2013-09-09 15:51:00,
2013-09-09 12:01:00,63.0,51.5,30.24,SE,135,0.0,3.0,66,0.00,,,-99.99,WeatherLink 5.7,2013-09-09 16:01:00,
2013-09-09 12:11:00,63.2,51.6,30.24,North,0,0.0,2.0,66,0.00,,,-99.99,WeatherLink 5.7,2013-09-09 16:11:00,
2013-09-09 12:21:00,63.4,52.7,30.24,North,0,0.0,2.0,68,0.00,,,-99.99,WeatherLink 5.7,2013-09-09 16:21:00,
2013-09-09 12:31:00,63.8,52.6,30.23,North,0,0.0,2.0,67,0.00,,,-99.99,WeatherLink 5.7,2013-09-09 16:31:00,
2013-09-09 12:41:00,64.1,52.1,30.23,NE,45,0.0,2.0,65,0.00,,,-99.99,WeatherLink 5.7,2013-09-09 16:41:00,
2013-09-09 12:51:00,64.4,52.0,30.22,NE,45,1.0,3.0,64,0.00,,,-99.99,WeatherLink 5.7,2013-09-09 16:51:00,
2013-09-09 13:01:00,64.8,51.9,30.22,ENE,67,0.0,2.0,63,0.00,,,-99.99,WeatherLink 5.7,2013-09-09 17:01:00,
2013-09-09 13:11:00,64.9,52.8,30.22,North,0,0.0,2.0,65,0.00,,,-99.99,WeatherLink 5.7,2013-09-09 17:11:00,
2013-09-09 13:21:00,65.2,53.1,30.22,NE,45,1.0,2.0,65,0.00,,,-99.99,WeatherLink 5.7,2013-09-09 17:21:00,
2013-09-09 13:31:00,65.7,53.6,30.22,North,0,0.0,4.0,65,0.00,,,-99.99,WeatherLink 5.7,2013-09-09 17:31:00,
2013-09-09 13:41:00,65.9,53.4,30.22,NE,45,1.0,3.0,64,0.00,,,-99.99,WeatherLink 5.7,2013-09-09 17:41:00,
2013-09-09 13:51:00,66.4,53.4,30.22,ENE,67,1.0,3.0,63,0.00,,,-99.99,WeatherLink 5.7,2013-09-09 17:51:00,
2013-09-09 14:01:00,66.8,54.2,30.20,ENE,67,1.0,3.0,64,0.00,,,-99.99,WeatherLink 5.7,2013-09-09 18:01:00,
2013-09-09 14:11:00,67.2,54.6,30.20,North,0,0.0,3.0,64,0.00,,,-99.99,WeatherLink 5.7,2013-09-09 18:11:00,
2013-09-09 14:21:00,67.5,54.5,30.20,NE,45,1.0,3.0,63,0.00,,,-99.99,WeatherLink 5.7,2013-09-09 18:21:00,
2013-09-09 14:31:00,67.6,55.0,30.20,NE,45,0.0,2.0,64,0.00,,,-99.99,WeatherLink 5.7,2013-09-09 18:31:00,
2013-09-09 14:41:00,67.7,55.1,30.20,NNE,22,1.0,3.0,64,0.00,,,-99.99,WeatherLink 5.7,2013-09-09 18:41:00,
2013-09-09 14:51:00,67.9,56.5,30.20,NNE,22,0.0,1.0,67,0.00,,,-99.99,WeatherLink 5.7,2013-09-09 18:51:00,
2013-09-09 15:01:00,68.0,56.2,30.19,NNE,22,0.0,3.0,66,0.00,,,-99.99,WeatherLink 5.7,2013-09-09 19:01:00,
2013-09-09 15:11:00,67.9,56.9,30.20,North,0,0.0,1.0,68,0.00,,,-99.99,WeatherLink 5.7,2013-09-09 19:11:00,
2013-09-09 15:21:00,67.9,56.1,30.20,North,0,0.0,2.0,66,0.00,,,-99.99,WeatherLink 5.7,2013-09-09 19:21:00,
2013-09-09 15:31:00,68.0,57.4,30.20,NNE,22,0.0,1.0,69,0.00,,,-99.99,WeatherLink 5.7,2013-09-09 19:31:00,
2013-09-09 15:41:00,67.9,56.1,30.20,NNE,22,0.0,2.0,66,0.00,,,-99.99,WeatherLink 5.7,2013-09-09 19:41:00,
2013-09-09 15:51:00,67.8,56.9,30.20,NNE,22,0.0,1.0,68,0.00,,,-99.99,WeatherLink 5.7,2013-09-09 19:51:00,
2013-09-09 16:01:00,67.4,57.3,30.20,NNE,22,0.0,2.0,70,0.00,,,-99.99,WeatherLink 5.7,2013-09-09 20:01:00,
2013-09-09 16:11:00,67.3,57.2,30.20,NNE,22,0.0,1.0,70,0.00,,,-99.99,WeatherLink 5.7,2013-09-09 20:11:00,
2013-09-09 16:22:00,67.2,57.9,30.19,North,-999,0.0,0.0,72,0.00,,,-99.99,WeatherLink 5.7,2013-09-09 20:22:00,
2013-09-09 16:31:00,67.1,58.2,30.19,North,-999,0.0,0.0,73,0.00,,,-99.99,WeatherLink 5.7,2013-09-09 20:31:00,
2013-09-09 16:41:00,66.9,58.3,30.19,North,-999,0.0,0.0,74,0.00,,,-99.99,WeatherLink 5.7,2013-09-09 20:41:00,
2013-09-09 16:51:00,66.9,58.7,30.18,North,-999,0.0,0.0,75,0.00,,,-99.99,WeatherLink 5.7,2013-09-09 20:51:00,
2013-09-09 17:01:00,67.0,58.8,30.18,North,-999,0.0,0.0,75,0.00,,,-99.99,WeatherLink 5.7,2013-09-09 21:01:00,
2013-09-09 17:11:00,66.9,58.3,30.18,North,-999,0.0,0.0,74,0.00,,,-99.99,WeatherLink 5.7,2013-09-09 21:11:00,
2013-09-09 17:21:00,66.9,59.1,30.18,North,-999,0.0,0.0,76,0.00,,,-99.99,WeatherLink 5.7,2013-09-09 21:21:00,
2013-09-09 17:31:00,66.8,58.6,30.17,North,-999,0.0,0.0,75,0.00,,,-99.99,WeatherLink 5.7,2013-09-09 21:31:00,
2013-09-09 17:41:00,66.9,58.7,30.17,North,-999,0.0,0.0,75,0.00,,,-99.99,WeatherLink 5.7,2013-09-09 21:41:00,
2013-09-09 17:51:00,66.8,58.6,30.17,NNE,22,0.0,1.0,75,0.00,,,-99.99,WeatherLink 5.7,2013-09-09 21:51:00,
2013-09-09 18:01:00,66.5,58.3,30.18,North,-999,0.0,0.0,75,0.00,,,-99.99,WeatherLink 5.7,2013-09-09 22:01:00,
2013-09-09 18:11:00,66.1,58.3,30.18,North,-999,0.0,0.0,76,0.00,,,-99.99,WeatherLink 5.7,2013-09-09 22:11:00,
2013-09-09 18:21:00,65.8,58.0,30.18,North,-999,0.0,0.0,76,0.00,,,-99.99,WeatherLink 5.7,2013-09-09 22:21:00,
2013-09-09 18:31:00,65.6,57.8,30.18,NNE,22,0.0,1.0,76,0.00,,,-99.99,WeatherLink 5.7,2013-09-09 22:31:00,
2013-09-09 18:41:00,65.7,57.2,30.17,NNE,22,0.0,1.0,74,0.00,,,-99.99,WeatherLink 5.7,2013-09-09 22:41:00,
2013-09-09 18:51:00,65.6,57.1,30.17,NNE,22,0.0,1.0,74,0.00,,,-99.99,WeatherLink 5.7,2013-09-09 22:51:00,
2013-09-09 19:01:00,65.4,56.5,30.17,NNE,22,0.0,1.0,73,0.00,,,-99.99,WeatherLink 5.7,2013-09-09 23:01:00,
2013-09-09 19:11:00,65.2,56.7,30.16,NNE,22,1.0,2.0,74,0.00,,,-99.99,WeatherLink 5.7,2013-09-09 23:11:00,
2013-09-09 19:21:00,64.9,56.4,30.16,NNE,22,1.0,1.0,74,0.00,,,-99.99,WeatherLink 5.7,2013-09-09 23:21:00,
2013-09-09 19:31:00,64.4,55.9,30.16,NNE,22,0.0,2.0,74,0.00,,,-99.99,WeatherLink 5.7,2013-09-09 23:31:00,
2013-09-09 19:41:00,63.9,55.8,30.16,NNE,22,1.0,2.0,75,0.00,,,-99.99,WeatherLink 5.7,2013-09-09 23:41:00,
2013-09-09 19:51:00,63.5,55.4,30.17,NNE,22,1.0,2.0,75,0.00,,,-99.99,WeatherLink 5.7,2013-09-09 23:51:00,
2013-09-09 20:01:00,63.1,55.8,30.17,North,-999,0.0,0.0,77,0.00,,,-99.99,WeatherLink 5.7,2013-09-10 00:01:00,
2013-09-09 20:11:00,62.8,55.5,30.18,North,-999,0.0,0.0,77,0.00,,,-99.99,WeatherLink 5.7,2013-09-10 00:11:00,
2013-09-09 20:21:00,62.8,55.5,30.17,North,-999,0.0,0.0,77,0.00,,,-99.99,WeatherLink 5.7,2013-09-10 00:21:00,
2013-09-09 20:31:00,62.8,55.5,30.18,North,-999,0.0,0.0,77,0.00,,,-99.99,WeatherLink 5.7,2013-09-10 00:31:00,
2013-09-09 20:41:00,62.9,55.6,30.18,North,-999,0.0,0.0,77,0.00,,,-99.99,WeatherLink 5.7,2013-09-10 00:41:00,
2013-09-09 20:51:00,63.0,55.7,30.18,North,-999,0.0,0.0,77,0.00,,,-99.99,WeatherLink 5.7,2013-09-10 00:51:00,
2013-09-09 21:01:00,63.0,56.0,30.18,North,-999,0.0,0.0,78,0.00,,,-99.99,WeatherLink 5.7,2013-09-10 01:01:00,
2013-09-09 21:11:00,63.0,56.0,30.18,North,-999,0.0,0.0,78,0.00,,,-99.99,WeatherLink 5.7,2013-09-10 01:11:00,
2013-09-09 21:21:00,63.0,56.4,30.19,North,-999,0.0,0.0,79,0.00,,,-99.99,WeatherLink 5.7,2013-09-10 01:21:00,
2013-09-09 21:31:00,62.9,56.3,30.19,North,-999,0.0,0.0,79,0.00,,,-99.99,WeatherLink 5.7,2013-09-10 01:31:00,
2013-09-09 21:41:00,62.7,56.8,30.18,North,-999,0.0,0.0,81,0.00,,,-99.99,WeatherLink 5.7,2013-09-10 01:41:00,
2013-09-09 21:51:00,62.6,56.7,30.18,North,-999,0.0,0.0,81,0.00,,,-99.99,WeatherLink 5.7,2013-09-10 01:51:00,
2013-09-09 22:01:00,62.5,56.9,30.18,North,-999,0.0,0.0,82,0.00,,,-99.99,WeatherLink 5.7,2013-09-10 02:01:00,
2013-09-09 22:11:00,62.3,56.7,30.18,North,-999,0.0,0.0,82,0.00,,,-99.99,WeatherLink 5.7,2013-09-10 02:11:00,
2013-09-09 22:21:00,62.3,56.7,30.17,North,-999,0.0,0.0,82,0.00,,,-99.99,WeatherLink 5.7,2013-09-10 02:21:00,
2013-09-09 22:31:00,62.2,56.6,30.18,North,-999,0.0,0.0,82,0.00,,,-99.99,WeatherLink 5.7,2013-09-10 02:31:00,
2013-09-09 22:41:00,62.1,56.9,30.18,North,-999,0.0,0.0,83,0.00,,,-99.99,WeatherLink 5.7,2013-09-10 02:41:00,
2013-09-09 22:51:00,62.1,56.9,30.19,North,-999,0.0,0.0,83,0.00,,,-99.99,WeatherLink 5.7,2013-09-10 02:51:00,
2013-09-09 23:01:00,62.1,56.9,30.19,North,-999,0.0,0.0,83,0.00,,,-99.99,WeatherLink 5.7,2013-09-10 03:01:00,
2013-09-09 23:11:00,62.1,56.9,30.18,North,-999,0.0,0.0,83,0.00,,,-99.99,WeatherLink 5.7,2013-09-10 03:11:00,
2013-09-09 23:21:00,62.2,57.3,30.18,North,-999,0.0,0.0,84,0.00,,,-99.99,WeatherLink 5.7,2013-09-10 03:21:00,
2013-09-09 23:31:00,62.3,57.4,30.18,North,-999,0.0,0.0,84,0.00,,,-99.99,WeatherLink 5.7,2013-09-10 03:31:00,
2013-09-09 23:41:00,62.4,57.8,30.18,North,-999,0.0,0.0,85,0.00,,,-99.99,WeatherLink 5.7,2013-09-10 03:41:00,
2013-09-09 23:51:00,62.6,58.0,30.18,North,-999,0.0,0.0,85,0.00,,,-99.99,WeatherLink 5.7,2013-09-10 03:51:00,